This demonstration page uses our WeatherBlox Daily Observations layout. Learn more.

Left ArrowRight Arrow

34.16533, -84.80231

Hourly Observations for July 2, 2020

Temp ( °F °C ) Dew Point ( °F °C ) Humidity (%) Winds ( mph kmh ) Pressure ( in mb ) Visibility ( mi km ) Precip ( " mm )
12:53 am 00:53 Clear 71 21.7 68 20 90 90 Calm 29.89 1012 10 16 0.00 0.00
1:53 am 01:53 Clear 69 20.6 66 18.9 90 90 SSW 3 6 29.88 1012 10 16 0.00 0.00
2:53 am 02:53 Clear 69 20.6 66 18.9 90 90 Calm 29.89 1012 10 16 0.00 0.00
3:53 am 03:53 Clear 70 21.1 67 19.4 90 90 Calm 29.88 1012 9 14 0.00 0.00
4:53 am 04:53 Clear 69 20.6 67 19.4 93 93 Calm 29.88 1012 8 13 0.00 0.00
5:53 am 05:53 Clear 69 20.6 67 19.4 93 93 Calm 29.89 1012 9 14 0.00 0.00
6:53 am 06:53 Sunny 69 20.6 67 19.4 93 93 Calm 29.91 1013 8 13 0.00 0.00
7:53 am 07:53 Sunny 72 22.2 68 20 87 87 Calm 29.92 1013 10 16 0.00 0.00
8:53 am 08:53 Sunny 76 24.4 69 20.6 79 79 VRB 3 6 29.93 1014 10 16 0.00 0.00
9:53 am 09:53 Sunny 79 26.1 70 21.1 74 74 Calm 29.93 1013 10 16 0.00 0.00
10:53 am 10:53 Partly Cloudy 82 27.8 71 21.7 69 69 Calm 29.92 1013 10 16 0.00 0.00
11:53 am 11:53 Mostly Sunny 85 29.4 71 21.7 63 63 VRB 7 11 29.91 1013 10 16 0.00 0.00
12:53 pm 12:53 Mostly Sunny 87 30.6 71 21.7 59 59 VRB 3 6 29.92 1013 10 16 0.00 0.00
1:53 pm 13:53 Partly Cloudy 87 30.6 72 22.2 61 61 Calm 29.92 1013 10 16 0.00 0.00
2:53 pm 14:53 Mostly Cloudy 88 31.1 71 21.7 57 57 VRB 3 6 29.90 1013 10 16 0.00 0.00
3:53 pm 15:53 Mostly Cloudy 89 31.7 69 20.6 52 52 VRB 3 6 29.89 1012 10 16 0.00 0.00
4:53 pm 16:53 Sunny 91 32.8 70 21.1 50 50 VRB 5 7 29.88 1012 10 16 0.00 0.00
5:53 pm 17:53 Mostly Sunny 92 33.3 71 21.7 51 51 NNW 5 7 29.87 1011 10 16 0.00 0.00
6:53 pm 18:53 Mostly Sunny 90 32.2 71 21.7 54 54 N 8 13 29.87 1011 10 16 0.00 0.00
7:53 pm 19:53 Mostly Sunny 86 30 71 21.7 61 61 N 7 11 29.88 1012 10 16 0.00 0.00
8:53 pm 20:53 Sunny 81 27.2 72 22.2 74 74 SE 5 7 29.88 1012 10 16 0.00 0.00
9:53 pm 21:53 Clear 79 26.1 73 22.8 82 82 Calm 29.89 1012 10 16 0.00 0.00
10:53 pm 22:53 Clear 75 23.9 72 22.2 90 90 Calm 29.90 1013 10 16 0.00 0.00
11:53 pm 23:53 Clear 76 24.4 71 21.7 85 85 Calm 29.91 1013 10 16 0.00 0.00

Powered by AerisWeather